STARLINK-5477, 55659

Orbit data source: Space-Track

STARLINK-5477, 55659 is a payload satellite owned by SpaceX/Seattle (US) in LEO that was launched on Fri, 17 Feb 2023 UTC via an FALCON 9 launch vehicle from the Air Force Western Test Range (AFWTR). Payload-class satellites include a variety of spacecraft equipped with specific instruments for various scientific and technological missions. These include communications satellites like Starlink; space stations such as the ISS; scientific satellites like the Hubble; Earth observation satellites from companies like Planet Labs, Umbra, and HawkEye 360; GPS; miniature CubeSats for education and research; and military/defense satellites.

Loading next visibility...
Identifier
55659, 2023-021AH
Orbit
LEO
Country
Flag of USUS
Related business
Manufacturer
SpaceX/Seattle
Mission
Operational Commercial Communications
Bus & Motor
STARLINK, Unknown motor
Mass
305 kg wet, ~290 kg dry
Launch date (UTC)
2023-02-17 (3 years ago)
Launch vehicle
FALCON 9
Launch site
Air Force Western Test Range (AFWTR)
Object type
Payload
Rocket body
Debris
Shape & HBR
Box + 1 Pan, 10.1 m
Radar Cross Section
13.562 m², Large (>1 m²)

Expand to show TLE details & history
Last TLE update: 2 days ago

TLE from 2 days ago
0 STARLINK-5477
1 55659U 23021AH  26171.44979866 -.00002008  00000-0 -16045-3 0  9999
2 55659  69.9992 265.4919 0002877 267.8953  92.1877 14.98345000184669
Epoch: 2026-06-20T10:47Z
TLE epoch observation values (Epoch: 2026-06-20T10:47:42.604Z)
Latitude
0.00003°
Longitude
-165.09986°
Altitude
574.51 km
Speed
7.574 km/s
True Right ascension
17h 41m 58s
True Declination
0° 00' 00"
Sunlit
Object was in full shadow at epoch
Visualization orbit readout
Latitude
Unknown
Longitude
Unknown
Altitude
Unknown
Speed
Unknown
Apparent Right ascension
Unknown
Apparent Declination
Unknown
Sunlit
N/A
Visualization observer readout
Local Sidereal Time
21:44:38
Azimuth
Unknown
Elevation
Unknown
Doppler factor
Unknown
Orbital elements
Apogee altitude
571.957 km
Perigee altitude
567.959 km
Semi-major axis
6,948.095 km
Eccentricity
0.00029
Inclination
69.9992°
RAAN
265.4919°
Arg. of periapsis
267.8953°
True anomaly
92.22064°
Mean anomaly
92.1877°
Eccentric anomaly
92.20417°
Mean motion
3.74753 °/min
Orbital period
96.06 mins
BSTAR
-0.00016045
Loading maneuver chart data...
Computing Atmospheric mass density...

Documentation

Showing up to 5 results
|